Weather History for Bakersfield, CA

Change the Weather History Date:

Thursday, August 16, 2012

  Actual Average Record
Temperature  
Mean Temperature 88 °F 82 °F  
Max Temperature 101 °F 96 °F 109 °F (1920)
Min Temperature 75 °F 69 °F 49 °F (1899)
Degree Days  
Heating Degree Days 0    
Month to date heating degree days 0  
Since 1 June heating degree days 2  
Since 1 July heating degree days 0  
Cooling Degree Days 23    
Month to date cooling degree days 397  
Year to date cooling degree days 1650  
Since 1 June cooling degree days 1345  
Growing Degree Days 38 (Base 50)    
Moisture  
Dew Point 47 °F    
Average Humidity 23    
Maximum Humidity 32    
Minimum Humidity 14    
Precipitation  
Precipitation 0.00 in 0.01 in 0.00 in (2014)
Month to date precipitation T 0.02  
Year to date precipitation 3.64 4.41  
Since 1 July precipitation 0.02 0.02  
Snow  
Snow 0.00 in - - ()
Month to date snowfall 0.0  
Since 1 June snowfall 0.0  
Since 1 July snowfall 0.0  
Snow Depth 0.00 in    
Sea Level Pressure  
Sea Level Pressure 29.82 in    
Wind  
Wind Speed 5 mph (NW)    
Max Wind Speed 14 mph    
Max Gust Speed 17 mph    
Visibility 10 miles    
Events      
T = Trace of Precipitation, MM = Missing Value Source: NWS Daily Summary

Daily Weather History Graph

Daily Weather History Graph

Search for Another Location

Airport:

Trip Planner

Search our weather history database for the weather conditions in past years. The results will help you decide how hot, cold, wet, or windy it might be!

Date:

Astronomy

Aug. 16, 2012 Rise Set
Actual Time 6:16 AM PDT 7:43 PM PDT
Civil Twilight 5:49 AM PDT 8:10 PM PDT
Nautical Twilight 5:17 AM PDT 8:42 PM PDT
Astronomical Twilight 4:43 AM PDT 9:15 PM PDT
Moon 5:20 AM PDT (8/16) 6:57 PM PDT (8/16)
Length of Visible Light 14h 20m
Length of Day
13h 26m
Waning Crescent, 1% of the Moon is Illuminated
Aug 16
Waning Crescent
Aug 17
New
Aug 24
First Quarter
Aug 31
Full
Sep 8
Last Quarter

Hourly Weather History & Observations

Time (PDT) Temp. Dew Point Humidity Pressure Visibility Wind Dir Wind Speed Gust Speed Precip Events Conditions
12:54 AM 82.0 °F 28.0 °F 14% 29.81 in 10.0 mi WNW 5.8 mph - N/A   Clear
1:54 AM 79.0 °F 39.9 °F 25% 29.80 in 10.0 mi NW 5.8 mph - N/A   Clear
2:54 AM 78.1 °F 43.0 °F 29% 29.81 in 10.0 mi Calm Calm - N/A   Clear
3:54 AM 78.1 °F 46.9 °F 33% 29.81 in 10.0 mi NNE 5.8 mph - N/A   Clear
4:54 AM 77.0 °F 43.0 °F 30% 29.82 in 10.0 mi SE 4.6 mph - N/A   Clear
5:54 AM 77.0 °F 45.0 °F 32% 29.83 in 10.0 mi Calm Calm - N/A   Clear
6:54 AM 78.1 °F 46.9 °F 33% 29.85 in 10.0 mi East 3.5 mph - N/A   Clear
7:54 AM 80.1 °F 46.9 °F 31% 29.86 in 10.0 mi Calm Calm - N/A   Clear
8:54 AM 82.9 °F 48.0 °F 29% 29.87 in 10.0 mi Variable 3.5 mph - N/A   Clear
9:54 AM 86.0 °F 50.0 °F 29% 29.87 in 10.0 mi SW 3.5 mph - N/A   Clear
10:54 AM 90.0 °F 52.0 °F 27% 29.87 in 10.0 mi Variable 5.8 mph - N/A   Clear
11:54 AM 93.9 °F 48.0 °F 21% 29.86 in 10.0 mi WNW 10.4 mph - N/A   Partly Cloudy
12:54 PM 96.1 °F 48.0 °F 19% 29.84 in 10.0 mi WNW 11.5 mph - N/A   Scattered Clouds
2:54 PM 99.0 °F 46.0 °F 16% 29.80 in 10.0 mi NW 11.5 mph - N/A   Clear
3:54 PM 100.0 °F 46.9 °F 16% 29.78 in 10.0 mi WNW 12.7 mph - N/A   Clear
4:54 PM 99.0 °F 50.0 °F 19% 29.77 in 10.0 mi WNW 11.5 mph - N/A   Clear
5:54 PM 99.0 °F 50.0 °F 19% 29.77 in 10.0 mi WNW 11.5 mph - N/A   Clear
6:54 PM 98.1 °F 48.9 °F 19% 29.78 in 10.0 mi NNW 8.1 mph - N/A   Clear
7:54 PM 93.0 °F 50.0 °F 23% 29.79 in 10.0 mi NW 3.5 mph - N/A   Clear
8:54 PM 91.9 °F 51.1 °F 25% 29.81 in 10.0 mi Calm Calm - N/A   Clear
9:54 PM 88.0 °F 50.0 °F 27% 29.83 in 10.0 mi Calm Calm - N/A   Clear
10:54 PM 87.1 °F 52.0 °F 30% 29.84 in 10.0 mi North 4.6 mph - N/A   Clear
11:54 PM 84.9 °F 52.0 °F 32% 29.84 in 10.0 mi NE 4.6 mph - N/A   Clear